Location: Strawberry
(45.6646°N, 111.9596°W)
Time: 20:17:32
(UTC+00:00)

Explorer 11/Cluster Stage 4 - Pass Details

Date: 05 October 2022
Orbit: 466 x 1248 km, 28.8° (Epoch: 28 November)

Event Time Altitude Azimuth Distance (km) Brightness Sun altitude
Rises 22:10:55 0° 251° (WSW) 4,024 11.3 26.2°
Reaches altitude 10° 22:16:07 10° 223° (SW) 2,897 11.3 25.5°
Maximum altitude 22:18:27 12° 204° (SSW) 2,677 10.5 25.1°
Drops below altitude 10° 22:20:40 10° 184° (S) 2,714 10.0 24.8°
Sets 22:25:07 0° 154° (SSE) 3,446 10.0 24.2°
